Change the Weather History Date:

Tuesday, February 26, 2013

  Actual Average (KHSV) Record (KHSV)
Temperature  
Mean Temperature 42 °F 49 °F  
Max Temperature 48 °F 59 °F 78 °F (1951)
Min Temperature 37 °F 38 °F 11 °F (1967)
Degree Days  
Heating Degree Days 22 16  
Month to date heating degree days 510  
Since 1 July heating degree days 2420  
Cooling Degree Days 0 0  
Month to date cooling degree days 0  
Year to date cooling degree days 0  
Moisture  
Dew Point 36 °F    
Average Humidity 75    
Maximum Humidity 93    
Minimum Humidity 57    
Precipitation  
Precipitation 0.03 in 0.17 in 2.92 in (1971)
Month to date precipitation 4.48  
Year to date precipitation 9.37  
Snow  
Snow 0.00 in - - ()
Month to date snowfall  
Since 1 July snowfall  
Snow Depth -    
Sea Level Pressure  
Sea Level Pressure 29.59 in    
Wind  
Wind Speed 15 mph (SSW)    
Max Wind Speed 20 mph    
Max Gust Speed 33 mph    
Visibility 9 miles    
Events Rain    
T = Trace of Precipitation, MM = Missing Value Source: NWS Daily Summary

Daily Weather History Graph

Daily Weather History Graph

Search for Another Location

Airport or City:

Trip Planner

Search our weather history database for the weather conditions in past years. The results will help you decide how hot, cold, wet, or windy it might be!

Date:

Astronomy

Feb. 26, 2013 Rise Set
Actual Time 6:18 AM CST 5:39 PM CST
Civil Twilight 5:53 AM CST 6:05 PM CST
Nautical Twilight 5:24 AM CST 6:34 PM CST
Astronomical Twilight 4:55 AM CST 7:03 PM CST
Moon 6:50 PM CST (2/26) 6:25 AM CST (2/26)
Length of Visible Light 12h 11m
Length of Day
11h 20m
Full, 99% of the Moon is Illuminated
Feb 26
Full
Mar 4
Last Quarter
Mar 11
New
Mar 19
First Quarter
Mar 27
Full

Hourly Weather History & Observations

Time (CST) Temp. Windchill Dew Point Humidity Pressure Visibility Wind Dir Wind Speed Gust Speed Precip Events Conditions
12:15 AM 48.2 °F - 41.0 °F 76% 29.54 in 10.0 mi SSE 19.6 mph 33.4 mph N/A   Mostly Cloudy
12:35 AM 48.2 °F - 41.0 °F 76% 29.52 in 10.0 mi SE 16.1 mph 28.8 mph N/A Rain Light Rain
12:55 AM 46.4 °F 39.0 °F 41.0 °F 81% 29.52 in 10.0 mi ESE 19.6 mph 32.2 mph N/A Rain Rain
1:15 AM 46.4 °F 40.4 °F 42.8 °F 87% 29.49 in 10.0 mi SE 13.8 mph 26.5 mph 0.01 in Rain Light Rain
1:35 AM 46.4 °F 39.8 °F 42.8 °F 87% 29.47 in 10.0 mi SE 16.1 mph 26.5 mph 0.01 in Rain Rain
1:55 AM 46.4 °F 39.0 °F 42.8 °F 87% 29.49 in 10.0 mi SSE 19.6 mph 29.9 mph 0.01 in   Overcast
2:15 AM 46.4 °F 39.8 °F 42.8 °F 87% 29.50 in 10.0 mi SE 16.1 mph 26.5 mph N/A Rain Light Rain
2:35 AM 46.4 °F 39.8 °F 42.8 °F 87% 29.50 in 10.0 mi SE 16.1 mph 27.6 mph N/A Rain Light Rain
2:55 AM 46.4 °F 40.7 °F 42.8 °F 87% 29.48 in 7.0 mi SE 12.7 mph 26.5 mph N/A Rain Rain
3:15 AM 46.4 °F 40.4 °F 41.0 °F 81% 29.46 in 10.0 mi SE 13.8 mph 31.1 mph N/A   Overcast
3:35 AM 46.4 °F 39.5 °F 41.0 °F 81% 29.46 in 10.0 mi SE 17.3 mph 31.1 mph N/A   Overcast
3:55 AM 46.4 °F 41.1 °F 41.0 °F 81% 29.49 in 10.0 mi South 11.5 mph 21.9 mph N/A   Overcast
4:15 AM 46.4 °F 40.1 °F 41.0 °F 81% 29.49 in 10.0 mi SSE 15.0 mph 20.7 mph N/A   Overcast
4:35 AM 46.4 °F 41.1 °F 41.0 °F 81% 29.48 in 10.0 mi SE 11.5 mph - N/A   Overcast
4:55 AM 46.4 °F 39.0 °F 39.2 °F 76% 29.47 in 10.0 mi SSE 19.6 mph 32.2 mph N/A   Overcast
5:15 AM 46.4 °F 39.2 °F 39.2 °F 76% 29.47 in 10.0 mi SE 18.4 mph 29.9 mph N/A   Overcast
5:35 AM 46.4 °F 40.7 °F 39.2 °F 76% 29.47 in 10.0 mi SSE 12.7 mph 21.9 mph N/A   Overcast
5:55 AM 44.6 °F 36.6 °F 39.2 °F 81% 29.47 in 10.0 mi SE 19.6 mph 26.5 mph N/A   Overcast
6:15 AM 44.6 °F 37.2 °F 39.2 °F 81% 29.47 in 10.0 mi SE 17.3 mph 25.3 mph N/A   Overcast
6:35 AM 44.6 °F 37.8 °F 39.2 °F 81% 29.47 in 10.0 mi SE 15.0 mph 21.9 mph N/A   Overcast
6:55 AM 44.6 °F 38.1 °F 37.4 °F 76% 29.46 in 10.0 mi SE 13.8 mph 21.9 mph N/A   Overcast
7:15 AM 44.6 °F 37.2 °F 39.2 °F 81% 29.46 in 10.0 mi SE 17.3 mph 23.0 mph N/A   Overcast
7:55 AM 44.6 °F 39.7 °F 41.0 °F 87% 29.50 in 3.0 mi South 9.2 mph 23.0 mph 0.01 in Rain Rain
8:15 AM 44.6 °F 42.2 °F 41.0 °F 87% 29.51 in 4.0 mi South 4.6 mph - 0.01 in   Drizzle
8:35 AM 44.6 °F 40.7 °F 41.0 °F 87% 29.51 in 10.0 mi South 6.9 mph - 0.01 in   Overcast
8:55 AM 44.6 °F 40.7 °F 41.0 °F 87% 29.50 in 10.0 mi SE 6.9 mph - 0.01 in Rain Rain
9:15 AM 44.6 °F 39.2 °F 41.0 °F 87% 29.50 in 5.0 mi SSE 10.4 mph 16.1 mph N/A   Drizzle
9:35 AM 44.6 °F 39.7 °F 41.0 °F 87% 29.49 in 7.0 mi SSE 9.2 mph 16.1 mph N/A   Drizzle
9:55 AM 44.6 °F 40.2 °F 41.0 °F 87% 29.50 in 4.0 mi South 8.1 mph - N/A Rain Heavy Rain
10:15 AM 44.6 °F 36.9 °F 41.0 °F 87% 29.54 in 3.0 mi WSW 18.4 mph 24.2 mph N/A Rain Rain
10:35 AM 42.8 °F 36.6 °F 39.2 °F 87% 29.55 in 2.5 mi SW 11.5 mph - N/A   Drizzle
10:55 AM 42.8 °F 37.5 °F 41.0 °F 93% 29.55 in 10.0 mi SSW 9.2 mph - N/A   Overcast
11:15 AM 46.4 °F 40.1 °F 41.0 °F 81% 29.55 in 10.0 mi SSW 15.0 mph 21.9 mph N/A   Mostly Cloudy
11:35 AM 48.2 °F - 37.4 °F 66% 29.56 in 10.0 mi SW 12.7 mph 20.7 mph N/A   Scattered Clouds
11:55 AM 46.4 °F 40.1 °F 33.8 °F 62% 29.57 in 10.0 mi SW 15.0 mph 23.0 mph N/A   Mostly Cloudy
12:15 PM 46.4 °F 39.5 °F 33.8 °F 62% 29.57 in 10.0 mi SW 17.3 mph 25.3 mph N/A   Overcast
12:35 PM 46.4 °F 40.1 °F 32.0 °F 57% 29.55 in 10.0 mi SW 15.0 mph 19.6 mph N/A   Overcast
12:55 PM 46.4 °F 39.5 °F 32.0 °F 57% 29.55 in 10.0 mi SSW 17.3 mph 25.3 mph N/A   Overcast
1:15 PM 46.4 °F 39.8 °F 33.8 °F 62% 29.55 in 10.0 mi SW 16.1 mph 26.5 mph N/A   Overcast
1:35 PM 46.4 °F 39.5 °F 32.0 °F 57% 29.56 in 10.0 mi SW 17.3 mph 24.2 mph N/A   Overcast
1:55 PM 46.4 °F 39.8 °F 32.0 °F 57% 29.58 in 10.0 mi WSW 16.1 mph 20.7 mph N/A   Overcast
2:15 PM 46.4 °F 39.0 °F 32.0 °F 57% 29.59 in 10.0 mi SW 19.6 mph 26.5 mph N/A   Overcast
2:35 PM 44.6 °F 37.4 °F 32.0 °F 61% 29.59 in 10.0 mi SSW 16.1 mph 27.6 mph N/A   Overcast
2:55 PM 44.6 °F 37.4 °F 32.0 °F 61% 29.60 in 10.0 mi SW 16.1 mph 29.9 mph N/A   Overcast
3:15 PM 44.6 °F 38.8 °F 32.0 °F 61% 29.60 in 10.0 mi SSW 11.5 mph 20.7 mph N/A   Overcast
3:35 PM 44.6 °F 38.1 °F 32.0 °F 61% 29.61 in 10.0 mi SSW 13.8 mph 19.6 mph N/A   Overcast
3:55 PM 42.8 °F 34.5 °F 33.8 °F 70% 29.63 in 5.0 mi WSW 18.4 mph 24.2 mph N/A   Heavy Drizzle
4:15 PM 42.8 °F 35.8 °F 33.8 °F 70% 29.63 in 10.0 mi SW 13.8 mph 21.9 mph N/A Rain Light Rain
4:35 PM 42.8 °F 35.8 °F 33.8 °F 70% 29.64 in 10.0 mi SW 13.8 mph 17.3 mph N/A   Overcast
4:55 PM 42.8 °F 35.4 °F 33.8 °F 70% 29.64 in 10.0 mi SW 15.0 mph 18.4 mph N/A   Overcast
5:15 PM 42.8 °F 36.2 °F 32.0 °F 66% 29.65 in 10.0 mi WSW 12.7 mph 21.9 mph N/A   Overcast
5:35 PM 42.8 °F 34.8 °F 32.0 °F 66% 29.66 in 5.0 mi WSW 17.3 mph 23.0 mph N/A   Drizzle
5:55 PM 41.0 °F 35.2 °F 33.8 °F 76% 29.67 in 7.0 mi SW 9.2 mph 18.4 mph N/A   Light Drizzle
6:15 PM 41.0 °F 31.9 °F 33.8 °F 76% 29.69 in 10.0 mi WSW 19.6 mph 25.3 mph N/A   Overcast
6:35 PM 41.0 °F 34.7 °F 33.8 °F 76% 29.70 in 10.0 mi WSW 10.4 mph - N/A   Overcast
6:55 PM 41.0 °F 35.2 °F 33.8 °F 76% 29.71 in 7.0 mi WSW 9.2 mph - N/A   Overcast
7:15 PM 41.0 °F 36.4 °F 33.8 °F 76% 29.72 in 10.0 mi SW 6.9 mph - N/A   Overcast
7:35 PM 41.0 °F 37.1 °F 33.8 °F 76% 29.72 in 10.0 mi SSW 5.8 mph - N/A   Overcast
7:55 PM 41.0 °F 33.1 °F 32.0 °F 70% 29.73 in 10.0 mi SSW 15.0 mph 18.4 mph N/A   Overcast
8:15 PM 41.0 °F 33.5 °F 32.0 °F 70% 29.74 in 10.0 mi SW 13.8 mph 19.6 mph N/A   Overcast
8:35 PM 41.0 °F 32.8 °F 32.0 °F 70% 29.74 in 10.0 mi SW 16.1 mph 20.7 mph N/A   Overcast
8:55 PM 41.0 °F 33.1 °F 32.0 °F 70% 29.75 in 10.0 mi SW 15.0 mph - N/A   Overcast
9:15 PM 41.0 °F 32.8 °F 32.0 °F 70% 29.76 in 10.0 mi SW 16.1 mph - N/A   Overcast
9:35 PM 37.4 °F 28.5 °F 32.0 °F 81% 29.77 in 5.0 mi WSW 15.0 mph 24.2 mph N/A   Drizzle
9:55 PM 37.4 °F 29.3 °F 32.0 °F 81% 29.77 in 10.0 mi WSW 12.7 mph 19.6 mph N/A   Overcast
10:15 PM 39.2 °F 32.5 °F 32.0 °F 75% 29.77 in 10.0 mi WSW 10.4 mph - N/A   Overcast
10:35 PM 39.2 °F 33.0 °F 32.0 °F 75% 29.78 in 10.0 mi SW 9.2 mph - N/A   Overcast
10:55 PM 39.2 °F 34.2 °F 32.0 °F 75% 29.78 in 10.0 mi WSW 6.9 mph - N/A   Overcast
11:15 PM 39.2 °F 33.0 °F 32.0 °F 75% 29.78 in 10.0 mi SW 9.2 mph - N/A   Overcast
11:35 PM 41.0 °F 34.7 °F 32.0 °F 70% 29.78 in 10.0 mi WSW 10.4 mph 19.6 mph N/A   Overcast
11:55 PM 41.0 °F 34.7 °F 32.0 °F 70% 29.78 in 10.0 mi WSW 10.4 mph - N/A   Overcast